,Coso Junction,Coso Junction
,PM10_1HR,PM10_1HR
,UG/M3,UG/M3
Date,Value,Null Code
01-Jan-2022 00:00,11.7,
01-Jan-2022 01:00,8.1,
01-Jan-2022 02:00,6.9,
01-Jan-2022 03:00,5.1,
01-Jan-2022 04:00,5.9,
01-Jan-2022 05:00,7,
01-Jan-2022 06:00,6,
01-Jan-2022 07:00,5.8,
01-Jan-2022 08:00,5.2,
01-Jan-2022 09:00,4.9,
01-Jan-2022 10:00,4.5,
01-Jan-2022 11:00,3.2,
01-Jan-2022 12:00,7.6,
01-Jan-2022 13:00,10,
01-Jan-2022 14:00,8.2,
01-Jan-2022 15:00,2.7,
01-Jan-2022 16:00,-1.6,
01-Jan-2022 17:00,7.5,
01-Jan-2022 18:00,5.6,
01-Jan-2022 19:00,7.2,
01-Jan-2022 20:00,5.3,
01-Jan-2022 21:00,5,
01-Jan-2022 22:00,4.1,
01-Jan-2022 23:00,3.7,
02-Jan-2022 00:00,3.9,
02-Jan-2022 01:00,3.8,
02-Jan-2022 02:00,3.5,
02-Jan-2022 03:00,3.4,
02-Jan-2022 04:00,3.2,
02-Jan-2022 05:00,3.9,
02-Jan-2022 06:00,4,
02-Jan-2022 07:00,3.8,
02-Jan-2022 08:00,3.3,
02-Jan-2022 09:00,4,
02-Jan-2022 10:00,2.3,
02-Jan-2022 11:00,3,
02-Jan-2022 12:00,6.3,
02-Jan-2022 13:00,7.2,
02-Jan-2022 14:00,4.9,
02-Jan-2022 15:00,5.2,
02-Jan-2022 16:00,-4.3,
02-Jan-2022 17:00,4.5,
02-Jan-2022 18:00,4.8,
02-Jan-2022 19:00,4.7,
02-Jan-2022 20:00,4.4,
02-Jan-2022 21:00,4.9,
02-Jan-2022 22:00,4.9,
02-Jan-2022 23:00,2.7,
03-Jan-2022 00:00,2.1,
03-Jan-2022 01:00,3.7,
03-Jan-2022 02:00,3.4,
03-Jan-2022 03:00,2.8,
03-Jan-2022 04:00,2.3,
03-Jan-2022 05:00,4,
03-Jan-2022 06:00,4.9,
03-Jan-2022 07:00,3.8,
03-Jan-2022 08:00,4.7,
03-Jan-2022 09:00,3.8,
03-Jan-2022 10:00,2,
03-Jan-2022 11:00,5.8,
03-Jan-2022 12:00,4.7,
03-Jan-2022 13:00,13.1,
03-Jan-2022 14:00,6.2,
03-Jan-2022 15:00,5.3,
03-Jan-2022 16:00,-0.6,
03-Jan-2022 17:00,6.6,
03-Jan-2022 18:00,7,
03-Jan-2022 19:00,5,
03-Jan-2022 20:00,4.6,
03-Jan-2022 21:00,5.9,
03-Jan-2022 22:00,3.9,
03-Jan-2022 23:00,4.1,
04-Jan-2022 00:00,4.9,
04-Jan-2022 01:00,5.6,
04-Jan-2022 02:00,4.7,
04-Jan-2022 03:00,6.6,
04-Jan-2022 04:00,5.7,
04-Jan-2022 05:00,5.8,
04-Jan-2022 06:00,5.8,
04-Jan-2022 07:00,5.9,
04-Jan-2022 08:00,5.6,
04-Jan-2022 09:00,7,
04-Jan-2022 10:00,4.9,
04-Jan-2022 11:00,11,
04-Jan-2022 12:00,8.6,
04-Jan-2022 13:00,4.9,
04-Jan-2022 14:00,7.3,
04-Jan-2022 15:00,7.5,
04-Jan-2022 16:00,3.2,
04-Jan-2022 17:00,1.4,
04-Jan-2022 18:00,6.1,
04-Jan-2022 19:00,7.3,
04-Jan-2022 20:00,5.6,
04-Jan-2022 21:00,7.5,
04-Jan-2022 22:00,5.5,
04-Jan-2022 23:00,3.3,
05-Jan-2022 00:00,3.7,
05-Jan-2022 01:00,6.3,
05-Jan-2022 02:00,4.2,
05-Jan-2022 03:00,4.9,
05-Jan-2022 04:00,5.7,
05-Jan-2022 05:00,5,
05-Jan-2022 06:00,5.7,
05-Jan-2022 07:00,5,
05-Jan-2022 08:00,8.4,
05-Jan-2022 09:00,6,
05-Jan-2022 10:00,10.4,
05-Jan-2022 11:00,10.1,
05-Jan-2022 12:00,6.6,
05-Jan-2022 13:00,6.9,
05-Jan-2022 14:00,3,
05-Jan-2022 15:00,4.2,
05-Jan-2022 16:00,3.9,
05-Jan-2022 17:00,0.2,
05-Jan-2022 18:00,2.8,
05-Jan-2022 19:00,5.1,
05-Jan-2022 20:00,5.2,
05-Jan-2022 21:00,4.8,
05-Jan-2022 22:00,4.3,
05-Jan-2022 23:00,3.8,
06-Jan-2022 00:00,3.1,
06-Jan-2022 01:00,4.1,
06-Jan-2022 02:00,3.9,
06-Jan-2022 03:00,4.6,
06-Jan-2022 04:00,4.1,
06-Jan-2022 05:00,6.4,
06-Jan-2022 06:00,5.3,
06-Jan-2022 07:00,5.3,
06-Jan-2022 08:00,,BA
06-Jan-2022 09:00,,BA
06-Jan-2022 10:00,-2,
06-Jan-2022 11:00,-0.4,
06-Jan-2022 12:00,0.1,
06-Jan-2022 13:00,0.8,
06-Jan-2022 14:00,1.5,
06-Jan-2022 15:00,8.7,
06-Jan-2022 16:00,5.5,
06-Jan-2022 17:00,3.8,
06-Jan-2022 18:00,0.6,
06-Jan-2022 19:00,1.9,
06-Jan-2022 20:00,2.5,
06-Jan-2022 21:00,2.2,
06-Jan-2022 22:00,2.2,
06-Jan-2022 23:00,2.1,
07-Jan-2022 00:00,1.1,
07-Jan-2022 01:00,2,
07-Jan-2022 02:00,1.5,
07-Jan-2022 03:00,1.7,
07-Jan-2022 04:00,2.5,
07-Jan-2022 05:00,3.1,
07-Jan-2022 06:00,4.8,
07-Jan-2022 07:00,3.1,
07-Jan-2022 08:00,4.8,
07-Jan-2022 09:00,5.8,
07-Jan-2022 10:00,4,
07-Jan-2022 11:00,2.8,
07-Jan-2022 12:00,4.7,
07-Jan-2022 13:00,2.1,
07-Jan-2022 14:00,3.9,
07-Jan-2022 15:00,8.6,
07-Jan-2022 16:00,5.8,
07-Jan-2022 17:00,5.6,
07-Jan-2022 18:00,3.7,
07-Jan-2022 19:00,8.8,
07-Jan-2022 20:00,8.5,
07-Jan-2022 21:00,3.6,
07-Jan-2022 22:00,6,
07-Jan-2022 23:00,19.1,
08-Jan-2022 00:00,9.8,
08-Jan-2022 01:00,7.3,
08-Jan-2022 02:00,5.7,
08-Jan-2022 03:00,3.4,
08-Jan-2022 04:00,4.4,
08-Jan-2022 05:00,4.8,
08-Jan-2022 06:00,4.4,
08-Jan-2022 07:00,3.8,
08-Jan-2022 08:00,4.9,
08-Jan-2022 09:00,3.8,
08-Jan-2022 10:00,3.9,
08-Jan-2022 11:00,1.1,
08-Jan-2022 12:00,0.6,
08-Jan-2022 13:00,1.9,
08-Jan-2022 14:00,3.4,
08-Jan-2022 15:00,4.1,
08-Jan-2022 16:00,5.7,
08-Jan-2022 17:00,4.1,
08-Jan-2022 18:00,4.6,
08-Jan-2022 19:00,4.2,
08-Jan-2022 20:00,3.6,
08-Jan-2022 21:00,4.5,
08-Jan-2022 22:00,3.4,
08-Jan-2022 23:00,2.9,
09-Jan-2022 00:00,2.9,
09-Jan-2022 01:00,3.7,
09-Jan-2022 02:00,3.5,
09-Jan-2022 03:00,2.8,
09-Jan-2022 04:00,4.1,
09-Jan-2022 05:00,4.8,
09-Jan-2022 06:00,4.1,
09-Jan-2022 07:00,4.8,
09-Jan-2022 08:00,4.6,
09-Jan-2022 09:00,4.4,
09-Jan-2022 10:00,3.2,
09-Jan-2022 11:00,2.4,
09-Jan-2022 12:00,1.5,
09-Jan-2022 13:00,1.5,
09-Jan-2022 14:00,3.6,
09-Jan-2022 15:00,5,
09-Jan-2022 16:00,6.2,
09-Jan-2022 17:00,6.2,
09-Jan-2022 18:00,4.4,
09-Jan-2022 19:00,4,
09-Jan-2022 20:00,4.2,
09-Jan-2022 21:00,3.3,
09-Jan-2022 22:00,3.9,
09-Jan-2022 23:00,3.9,
10-Jan-2022 00:00,1.8,
10-Jan-2022 01:00,4,
10-Jan-2022 02:00,1.5,
10-Jan-2022 03:00,2.3,
10-Jan-2022 04:00,2.9,
10-Jan-2022 05:00,4.5,
10-Jan-2022 06:00,4.5,
10-Jan-2022 07:00,4.3,
10-Jan-2022 08:00,4.3,
10-Jan-2022 09:00,4.6,
10-Jan-2022 10:00,2.7,
10-Jan-2022 11:00,1.9,
10-Jan-2022 12:00,1.8,
10-Jan-2022 13:00,3,
10-Jan-2022 14:00,4,
10-Jan-2022 15:00,4.5,
10-Jan-2022 16:00,4.2,
10-Jan-2022 17:00,5,
10-Jan-2022 18:00,6.3,
10-Jan-2022 19:00,5,
10-Jan-2022 20:00,5,
10-Jan-2022 21:00,5,
10-Jan-2022 22:00,4.5,
10-Jan-2022 23:00,3.5,
11-Jan-2022 00:00,4.1,
11-Jan-2022 01:00,3.9,
11-Jan-2022 02:00,3,
11-Jan-2022 03:00,2.5,
11-Jan-2022 04:00,4.7,
11-Jan-2022 05:00,5.5,
11-Jan-2022 06:00,6.2,
11-Jan-2022 07:00,4.5,
11-Jan-2022 08:00,5.5,
11-Jan-2022 09:00,5.3,
11-Jan-2022 10:00,1.4,
11-Jan-2022 11:00,0.1,
11-Jan-2022 12:00,0,
11-Jan-2022 13:00,2.9,
11-Jan-2022 14:00,4.4,
11-Jan-2022 15:00,4.9,
11-Jan-2022 16:00,6.5,
11-Jan-2022 17:00,3.9,
11-Jan-2022 18:00,4.6,
11-Jan-2022 19:00,4,
11-Jan-2022 20:00,4,
11-Jan-2022 21:00,5.6,
11-Jan-2022 22:00,5,
11-Jan-2022 23:00,4.5,
12-Jan-2022 00:00,3.2,
12-Jan-2022 01:00,4.2,
12-Jan-2022 02:00,3.3,
12-Jan-2022 03:00,4.1,
12-Jan-2022 04:00,5.2,
12-Jan-2022 05:00,6.7,
12-Jan-2022 06:00,5.8,
12-Jan-2022 07:00,4,
12-Jan-2022 08:00,5.8,
12-Jan-2022 09:00,6.7,
12-Jan-2022 10:00,3.1,
12-Jan-2022 11:00,1.6,
12-Jan-2022 12:00,3.1,
12-Jan-2022 13:00,2.5,
12-Jan-2022 14:00,5,
12-Jan-2022 15:00,12.4,
12-Jan-2022 16:00,6,
12-Jan-2022 17:00,8.8,
12-Jan-2022 18:00,4.8,
12-Jan-2022 19:00,4.8,
12-Jan-2022 20:00,3.7,
12-Jan-2022 21:00,4.9,
12-Jan-2022 22:00,6.5,
12-Jan-2022 23:00,2.7,
13-Jan-2022 00:00,1.9,
13-Jan-2022 01:00,4.9,
13-Jan-2022 02:00,4.6,
13-Jan-2022 03:00,3,
13-Jan-2022 04:00,4.5,
13-Jan-2022 05:00,6.4,
13-Jan-2022 06:00,6.5,
13-Jan-2022 07:00,5.6,
13-Jan-2022 08:00,6.2,
13-Jan-2022 09:00,7.1,
13-Jan-2022 10:00,7.1,
13-Jan-2022 11:00,4.6,
13-Jan-2022 12:00,4.1,
13-Jan-2022 13:00,3.2,
13-Jan-2022 14:00,3.4,
13-Jan-2022 15:00,23.9,
13-Jan-2022 16:00,11.1,
13-Jan-2022 17:00,8.3,
13-Jan-2022 18:00,5.7,
13-Jan-2022 19:00,4.7,
13-Jan-2022 20:00,4.9,
13-Jan-2022 21:00,4.4,
13-Jan-2022 22:00,4.9,
13-Jan-2022 23:00,4.9,
14-Jan-2022 00:00,5.3,
14-Jan-2022 01:00,4.5,
14-Jan-2022 02:00,4.1,
14-Jan-2022 03:00,5.9,
14-Jan-2022 04:00,7.5,
14-Jan-2022 05:00,9,
14-Jan-2022 06:00,7,
14-Jan-2022 07:00,10.9,
14-Jan-2022 08:00,10.9,
14-Jan-2022 09:00,20.4,
14-Jan-2022 10:00,32.2,
14-Jan-2022 11:00,31.3,
14-Jan-2022 12:00,29.4,
14-Jan-2022 13:00,16.9,
14-Jan-2022 14:00,15.6,
14-Jan-2022 15:00,11.6,
14-Jan-2022 16:00,6.9,
14-Jan-2022 17:00,7.7,
14-Jan-2022 18:00,6.2,
14-Jan-2022 19:00,5.1,
14-Jan-2022 20:00,4.2,
14-Jan-2022 21:00,4.1,
14-Jan-2022 22:00,4.9,
14-Jan-2022 23:00,4.8,
15-Jan-2022 00:00,5.4,
15-Jan-2022 01:00,4.8,
15-Jan-2022 02:00,5.4,
15-Jan-2022 03:00,5.4,
15-Jan-2022 04:00,4.1,
15-Jan-2022 05:00,5.2,
15-Jan-2022 06:00,5.4,
15-Jan-2022 07:00,4.6,
15-Jan-2022 08:00,3.6,
15-Jan-2022 09:00,4.2,
15-Jan-2022 10:00,2.8,
15-Jan-2022 11:00,1.7,
15-Jan-2022 12:00,2.4,
15-Jan-2022 13:00,2.8,
15-Jan-2022 14:00,3.7,
15-Jan-2022 15:00,5.3,
15-Jan-2022 16:00,5.5,
15-Jan-2022 17:00,5.8,
15-Jan-2022 18:00,4.9,
15-Jan-2022 19:00,6.1,
15-Jan-2022 20:00,5.3,
15-Jan-2022 21:00,4.6,
15-Jan-2022 22:00,6.4,
15-Jan-2022 23:00,4.5,
16-Jan-2022 00:00,2.3,
16-Jan-2022 01:00,6.4,
16-Jan-2022 02:00,5,
16-Jan-2022 03:00,4.2,
16-Jan-2022 04:00,5.7,
16-Jan-2022 05:00,5.8,
16-Jan-2022 06:00,5.3,
16-Jan-2022 07:00,5.1,
16-Jan-2022 08:00,5.4,
16-Jan-2022 09:00,4.3,
16-Jan-2022 10:00,4.9,
16-Jan-2022 11:00,3.8,
16-Jan-2022 12:00,4,
16-Jan-2022 13:00,3.4,
16-Jan-2022 14:00,4.6,
16-Jan-2022 15:00,4.4,
16-Jan-2022 16:00,8.3,
16-Jan-2022 17:00,5.5,
16-Jan-2022 18:00,1.7,
16-Jan-2022 19:00,4.2,
16-Jan-2022 20:00,4.9,
16-Jan-2022 21:00,4.1,
16-Jan-2022 22:00,3.6,
16-Jan-2022 23:00,3.5,
17-Jan-2022 00:00,3,
17-Jan-2022 01:00,2.7,
17-Jan-2022 02:00,4.5,
17-Jan-2022 03:00,4.6,
17-Jan-2022 04:00,4.3,
17-Jan-2022 05:00,4.7,
17-Jan-2022 06:00,6.6,
17-Jan-2022 07:00,6.1,
17-Jan-2022 08:00,7.8,
17-Jan-2022 09:00,7,
17-Jan-2022 10:00,6.4,
17-Jan-2022 11:00,2.6,
17-Jan-2022 12:00,2.8,
17-Jan-2022 13:00,4.2,
17-Jan-2022 14:00,7.3,
17-Jan-2022 15:00,12.6,
17-Jan-2022 16:00,8,
17-Jan-2022 17:00,6.9,
17-Jan-2022 18:00,3.7,
17-Jan-2022 19:00,4.7,
17-Jan-2022 20:00,5.5,
17-Jan-2022 21:00,6.5,
17-Jan-2022 22:00,5.7,
17-Jan-2022 23:00,5.6,
18-Jan-2022 00:00,6.1,
18-Jan-2022 01:00,8,
18-Jan-2022 02:00,4.3,
18-Jan-2022 03:00,4.7,
18-Jan-2022 04:00,6.4,
18-Jan-2022 05:00,7.1,
18-Jan-2022 06:00,7.8,
18-Jan-2022 07:00,6.4,
18-Jan-2022 08:00,5.4,
18-Jan-2022 09:00,6,
18-Jan-2022 10:00,6.7,
18-Jan-2022 11:00,4.6,
18-Jan-2022 12:00,3.2,
18-Jan-2022 13:00,4.6,
18-Jan-2022 14:00,5.5,
18-Jan-2022 15:00,6,
18-Jan-2022 16:00,13.2,
18-Jan-2022 17:00,12.2,
18-Jan-2022 18:00,4.7,
18-Jan-2022 19:00,5.1,
18-Jan-2022 20:00,6.4,
18-Jan-2022 21:00,6.7,
18-Jan-2022 22:00,5.9,
18-Jan-2022 23:00,27.5,
19-Jan-2022 00:00,7.7,
19-Jan-2022 01:00,5.4,
19-Jan-2022 02:00,4.5,
19-Jan-2022 03:00,3.8,
19-Jan-2022 04:00,3.3,
19-Jan-2022 05:00,4.6,
19-Jan-2022 06:00,6.3,
19-Jan-2022 07:00,5.3,
19-Jan-2022 08:00,7.6,
19-Jan-2022 09:00,7.5,
19-Jan-2022 10:00,4.4,
19-Jan-2022 11:00,3.2,
19-Jan-2022 12:00,2.8,
19-Jan-2022 13:00,6.1,
19-Jan-2022 14:00,8.5,
19-Jan-2022 15:00,8.3,
19-Jan-2022 16:00,10.7,
19-Jan-2022 17:00,10.7,
19-Jan-2022 18:00,4.7,
19-Jan-2022 19:00,6.3,
19-Jan-2022 20:00,6.4,
19-Jan-2022 21:00,7.3,
19-Jan-2022 22:00,5.3,
19-Jan-2022 23:00,5.5,
20-Jan-2022 00:00,4.8,
20-Jan-2022 01:00,5.2,
20-Jan-2022 02:00,5.1,
20-Jan-2022 03:00,5.7,
20-Jan-2022 04:00,4.8,
20-Jan-2022 05:00,5.8,
20-Jan-2022 06:00,6.2,
20-Jan-2022 07:00,5,
20-Jan-2022 08:00,5.3,
20-Jan-2022 09:00,5.3,
20-Jan-2022 10:00,3.4,
20-Jan-2022 11:00,0.6,
20-Jan-2022 12:00,2.3,
20-Jan-2022 13:00,1.4,
20-Jan-2022 14:00,3.8,
20-Jan-2022 15:00,11.9,
20-Jan-2022 16:00,16.1,
20-Jan-2022 17:00,6.9,
20-Jan-2022 18:00,5.1,
20-Jan-2022 19:00,5.5,
20-Jan-2022 20:00,4.6,
20-Jan-2022 21:00,7.8,
20-Jan-2022 22:00,4,
20-Jan-2022 23:00,10.2,
21-Jan-2022 00:00,8.9,
21-Jan-2022 01:00,5,
21-Jan-2022 02:00,3.2,
21-Jan-2022 03:00,3.9,
21-Jan-2022 04:00,3.5,
21-Jan-2022 05:00,5.1,
21-Jan-2022 06:00,7.2,
21-Jan-2022 07:00,6,
21-Jan-2022 08:00,4.5,
21-Jan-2022 09:00,39.5,
21-Jan-2022 10:00,173.5,
21-Jan-2022 11:00,167.4,
21-Jan-2022 12:00,125.3,
21-Jan-2022 13:00,51.6,
21-Jan-2022 14:00,35.3,
21-Jan-2022 15:00,24.2,
21-Jan-2022 16:00,33.5,
21-Jan-2022 17:00,33.8,
21-Jan-2022 18:00,19,
21-Jan-2022 19:00,28,
21-Jan-2022 20:00,42.3,
21-Jan-2022 21:00,23.8,
21-Jan-2022 22:00,27.5,
21-Jan-2022 23:00,45.9,
22-Jan-2022 00:00,47.7,
22-Jan-2022 01:00,26.2,
22-Jan-2022 02:00,26.4,
22-Jan-2022 03:00,19.4,
22-Jan-2022 04:00,30.5,
22-Jan-2022 05:00,16.1,
22-Jan-2022 06:00,26,
22-Jan-2022 07:00,32.7,
22-Jan-2022 08:00,48.2,
22-Jan-2022 09:00,44.6,
22-Jan-2022 10:00,18,
22-Jan-2022 11:00,27.4,
22-Jan-2022 12:00,56.3,
22-Jan-2022 13:00,48.2,
22-Jan-2022 14:00,16.5,
22-Jan-2022 15:00,8.4,
22-Jan-2022 16:00,14.8,
22-Jan-2022 17:00,7.5,
22-Jan-2022 18:00,9.7,
22-Jan-2022 19:00,6.1,
22-Jan-2022 20:00,9.8,
22-Jan-2022 21:00,12,
22-Jan-2022 22:00,11.4,
22-Jan-2022 23:00,8.4,
23-Jan-2022 00:00,8,
23-Jan-2022 01:00,6.3,
23-Jan-2022 02:00,5,
23-Jan-2022 03:00,5,
23-Jan-2022 04:00,5.5,
23-Jan-2022 05:00,5.5,
23-Jan-2022 06:00,6.3,
23-Jan-2022 07:00,6.4,
23-Jan-2022 08:00,4.3,
23-Jan-2022 09:00,4.4,
23-Jan-2022 10:00,3,
23-Jan-2022 11:00,3.3,
23-Jan-2022 12:00,3,
23-Jan-2022 13:00,4.1,
23-Jan-2022 14:00,4.4,
23-Jan-2022 15:00,4.9,
23-Jan-2022 16:00,10.4,
23-Jan-2022 17:00,3.6,
23-Jan-2022 18:00,4.3,
23-Jan-2022 19:00,6.5,
23-Jan-2022 20:00,5.1,
23-Jan-2022 21:00,4,
23-Jan-2022 22:00,4.6,
23-Jan-2022 23:00,7.1,
24-Jan-2022 00:00,4.6,
24-Jan-2022 01:00,2.8,
24-Jan-2022 02:00,3.8,
24-Jan-2022 03:00,4.2,
24-Jan-2022 04:00,2.8,
24-Jan-2022 05:00,4,
24-Jan-2022 06:00,4.2,
24-Jan-2022 07:00,3.5,
24-Jan-2022 08:00,4,
24-Jan-2022 09:00,4.8,
24-Jan-2022 10:00,4.3,
24-Jan-2022 11:00,1.7,
24-Jan-2022 12:00,1.4,
24-Jan-2022 13:00,1.2,
24-Jan-2022 14:00,7.5,
24-Jan-2022 15:00,8.2,
24-Jan-2022 16:00,12.3,
24-Jan-2022 17:00,5.4,
24-Jan-2022 18:00,1.1,
24-Jan-2022 19:00,4.7,
24-Jan-2022 20:00,5.6,
24-Jan-2022 21:00,4.7,
24-Jan-2022 22:00,2.3,
24-Jan-2022 23:00,4.4,
25-Jan-2022 00:00,4.3,
25-Jan-2022 01:00,3.5,
25-Jan-2022 02:00,2.6,
25-Jan-2022 03:00,5,
25-Jan-2022 04:00,6.3,
25-Jan-2022 05:00,4.5,
25-Jan-2022 06:00,8,
25-Jan-2022 07:00,5.5,
25-Jan-2022 08:00,31.7,
25-Jan-2022 09:00,52.9,
25-Jan-2022 10:00,59,
25-Jan-2022 11:00,60.8,
25-Jan-2022 12:00,32.3,
25-Jan-2022 13:00,20.2,
25-Jan-2022 14:00,13.3,
25-Jan-2022 15:00,13.3,
25-Jan-2022 16:00,13.7,
25-Jan-2022 17:00,8.3,
25-Jan-2022 18:00,5.1,
25-Jan-2022 19:00,6.1,
25-Jan-2022 20:00,5.2,
25-Jan-2022 21:00,4.2,
25-Jan-2022 22:00,4.8,
25-Jan-2022 23:00,5.8,
26-Jan-2022 00:00,6.8,
26-Jan-2022 01:00,6.2,
26-Jan-2022 02:00,3.4,
26-Jan-2022 03:00,3.2,
26-Jan-2022 04:00,4.6,
26-Jan-2022 05:00,4.2,
26-Jan-2022 06:00,6.5,
26-Jan-2022 07:00,3.4,
26-Jan-2022 08:00,5,
26-Jan-2022 09:00,5,
26-Jan-2022 10:00,4.3,
26-Jan-2022 11:00,3.8,
26-Jan-2022 12:00,2.2,
26-Jan-2022 13:00,,AX
26-Jan-2022 14:00,,AX
26-Jan-2022 15:00,,AX
26-Jan-2022 16:00,19.5,
26-Jan-2022 17:00,7.8,
26-Jan-2022 18:00,6.8,
26-Jan-2022 19:00,5.6,
26-Jan-2022 20:00,7.2,
26-Jan-2022 21:00,6.2,
26-Jan-2022 22:00,6.8,
26-Jan-2022 23:00,4.5,
27-Jan-2022 00:00,2.5,
27-Jan-2022 01:00,3.7,
27-Jan-2022 02:00,4.1,
27-Jan-2022 03:00,5.4,
27-Jan-2022 04:00,5,
27-Jan-2022 05:00,6.1,
27-Jan-2022 06:00,7.8,
27-Jan-2022 07:00,5.8,
27-Jan-2022 08:00,3.3,
27-Jan-2022 09:00,5.8,
27-Jan-2022 10:00,6.2,
27-Jan-2022 11:00,6.7,
27-Jan-2022 12:00,6,
27-Jan-2022 13:00,6,
27-Jan-2022 14:00,7.2,
27-Jan-2022 15:00,7.5,
27-Jan-2022 16:00,8.9,
27-Jan-2022 17:00,7.9,
27-Jan-2022 18:00,4.5,
27-Jan-2022 19:00,3.8,
27-Jan-2022 20:00,5.6,
27-Jan-2022 21:00,4.9,
27-Jan-2022 22:00,4.5,
27-Jan-2022 23:00,12.8,
28-Jan-2022 00:00,10,
28-Jan-2022 01:00,7.5,
28-Jan-2022 02:00,5.4,
28-Jan-2022 03:00,5.6,
28-Jan-2022 04:00,4.8,
28-Jan-2022 05:00,5,
28-Jan-2022 06:00,6.4,
28-Jan-2022 07:00,6.9,
28-Jan-2022 08:00,6.9,
28-Jan-2022 09:00,3.9,
28-Jan-2022 10:00,3.3,
28-Jan-2022 11:00,1,
28-Jan-2022 12:00,0.9,
28-Jan-2022 13:00,3.8,
28-Jan-2022 14:00,12.7,
28-Jan-2022 15:00,8.8,
28-Jan-2022 16:00,14.1,
28-Jan-2022 17:00,7.4,
28-Jan-2022 18:00,7.1,
28-Jan-2022 19:00,5.7,
28-Jan-2022 20:00,6.5,
28-Jan-2022 21:00,7.2,
28-Jan-2022 22:00,4.8,
28-Jan-2022 23:00,4,
29-Jan-2022 00:00,1.1,
29-Jan-2022 01:00,4.9,
29-Jan-2022 02:00,2.1,
29-Jan-2022 03:00,3.4,
29-Jan-2022 04:00,4.7,
29-Jan-2022 05:00,5.8,
29-Jan-2022 06:00,6.9,
29-Jan-2022 07:00,5.7,
29-Jan-2022 08:00,5.7,
29-Jan-2022 09:00,5,
29-Jan-2022 10:00,4.8,
29-Jan-2022 11:00,3.1,
29-Jan-2022 12:00,3.1,
29-Jan-2022 13:00,3.3,
29-Jan-2022 14:00,2.7,
29-Jan-2022 15:00,4.6,
29-Jan-2022 16:00,6.4,
29-Jan-2022 17:00,5.9,
29-Jan-2022 18:00,6.9,
29-Jan-2022 19:00,6.2,
29-Jan-2022 20:00,5.1,
29-Jan-2022 21:00,5.8,
29-Jan-2022 22:00,4.6,
29-Jan-2022 23:00,4.4,
30-Jan-2022 00:00,4.4,
30-Jan-2022 01:00,7.3,
30-Jan-2022 02:00,5.7,
30-Jan-2022 03:00,6.7,
30-Jan-2022 04:00,6,
30-Jan-2022 05:00,6,
30-Jan-2022 06:00,7.4,
30-Jan-2022 07:00,5.6,
30-Jan-2022 08:00,5.2,
30-Jan-2022 09:00,5.1,
30-Jan-2022 10:00,3.2,
30-Jan-2022 11:00,3.7,
30-Jan-2022 12:00,1.3,
30-Jan-2022 13:00,3.8,
30-Jan-2022 14:00,2.6,
30-Jan-2022 15:00,4.4,
30-Jan-2022 16:00,11.2,
30-Jan-2022 17:00,6.3,
30-Jan-2022 18:00,3.8,
30-Jan-2022 19:00,5.2,
30-Jan-2022 20:00,6.1,
30-Jan-2022 21:00,4.8,
30-Jan-2022 22:00,4.3,
30-Jan-2022 23:00,4.9,
31-Jan-2022 00:00,3.6,
31-Jan-2022 01:00,3.2,
31-Jan-2022 02:00,1.2,
31-Jan-2022 03:00,5,
31-Jan-2022 04:00,3.5,
31-Jan-2022 05:00,4.5,
31-Jan-2022 06:00,6.7,
31-Jan-2022 07:00,5.5,
31-Jan-2022 08:00,5.3,
31-Jan-2022 09:00,6.1,
31-Jan-2022 10:00,5,
31-Jan-2022 11:00,7.6,
31-Jan-2022 12:00,6.3,
31-Jan-2022 13:00,9,
31-Jan-2022 14:00,9,
31-Jan-2022 15:00,16.6,
31-Jan-2022 16:00,11.5,
31-Jan-2022 17:00,10.4,
31-Jan-2022 18:00,4.9,
31-Jan-2022 19:00,3.9,
31-Jan-2022 20:00,6.1,
31-Jan-2022 21:00,7.3,
31-Jan-2022 22:00,5.7,
31-Jan-2022 23:00,4.4,
